Location: Batang Balui
(2.7000°N, 113.7833°E)
Time: 01:00:17
(UTC+00:00)

BlueWalker 3 - Visible Passes

Search period start: 06 December 2023 00:00
Search period end: 16 December 2023 00:00
Orbit: 490 x 503 km, 53.2° (Epoch: 05 December)

Date Brightness Start Highest point End Pass type
(mag) Time Alt. Az. Time Alt. Az. Time Alt. Az.
06 Dec 2.3 11:25:46 10° SSW 11:29:27 46° ESE 11:30:01 42° E visible
07 Dec 2.4 11:03:04 10° SSW 11:06:46 45° ESE 11:08:56 22° ENE visible
08 Dec 2.4 10:40:23 10° SSW 10:44:04 43° ESE 10:47:44 10° NE visible
10 Dec 2.2 21:42:15 10° NNW 21:46:00 68° NE 21:49:46 10° SE visible
11 Dec 2.2 21:20:27 17° NNW 21:23:16 66° ENE 21:27:01 10° SE visible
12 Dec 2.1 20:59:18 39° N 21:00:30 64° NE 21:04:15 10° SE visible
13 Dec 2.4 20:38:07 57° E 20:38:07 57° E 20:41:29 10° SE visible
14 Dec 4.0 20:16:52 26° SE 20:16:52 26° SE 20:18:41 10° SE visible
15 Dec 5.1 19:55:33 12° SE 19:55:33 12° SE 19:55:53 10° SE visible
